Location: Kaarina
(60.4167°N, 22.4167°E)
Time: 00:02:51
(UTC+03:00)

Meteor 2-8 Rocket - Pass Details

Date: 24 August 2019
Orbit: 936 x 958 km, 82.5° (Epoch: 14 September)

Event Time Altitude Azimuth Distance (km) Brightness Sun altitude
Exits shadow 22:45:59 - 178° (S) 3,008 6.6 -11.3°
Reaches altitude 10° 22:46:56 10° 177° (S) 2,651 6.3 -11.4°
Maximum altitude 22:52:54 65° 97° (E) 1,032 4.5 -11.9°
Drops below altitude 10° 22:58:54 10° 17° (NNE) 2,664 7.3 -12.3°
Sets 23:01:25 0° 15° (NNE) 3,613 8.0 -12.5°
